軌道要素
Epoch 2003 June 10.0 TT = JDT 2452800.5
T 2003 June 19.65716 TT MPC
q 2.3667716 (2000.0) P Q
n 0.17649808 Peri. 253.51403 +0.98323222 -0.00851708
a 3.1475748 Node 106.68975 +0.07118782 +0.93757839
e 0.2480650 Incl. 10.96271 -0.16788893 +0.34766970
P 5.58
From 69 observations 2003 Sept. 22-2014 Oct. 14, mean residual 0".6.
|